Temperature
10 10 10 10 10 10 10 10 10 10 10 10 10 10 10 10 10 11 10 11 10 10 10 10 10 10 10 10 10 10 10 10 9 9 9 10 10 10 10 10 10 10 10
9 9 9 9 9 10 10 10 10 10 10 10 10 10 10 10 10 10 10 10 10 10 10 10 10 10 10 10 10 10 9 9 9 9 9 8 9 9 10 10 10 10 9
8 8 9 9 9 9 9 9 9 9 9 9 9 9 9 9 9 9 9 9 9 9 9 9 9 9 9 9 9 9 9 9 9 8 8 8 8 9 9 9 9 9 9
7 8 8 8 8 8 8 8 8 8 8 8 8 9 8 8 9 9 9 9 9 9 9 9 9 9 9 9 9 9 9 9 8 8 8 8 8 8 8 9 9 9 9
6 7 7 7 8 8 8 8 8 8 8 8 8 8 8 8 8 8 8 8 8 8 9 9 9 9 9 9 8 8 8 8 8 8 8 8 8 8 8 8 8 8 9
6 6 6 7 7 7 7 7 7 7 7 7 7 7 7 8 7 7 8 8 8 8 8 8 8 8 8 8 8 8 8 8 8 8 8 8 8 7 7 7 7 8 8
5 5 6 6 6 6 6 6 6 7 7 7 7 7 7 7 7 7 7 7 7 7 8 8 8 8 8 8 8 8 8 8 8 8 8 7 7 7 7 7 7 7 7
4 5 5 5 5 5 5 5 6 6 6 6 6 6 6 6 6 6 6 6 7 7 7 7 7 7 8 8 7 7 7 7 7 7 7 7 7 7 7 7 6 6 6
3 4 4 4 4 4 5 5 5 5 5 5 5 6 6 6 6 6 6 6 6 6 7 7 7 7 7 7 7 7 7 7 7 7 7 6 6 6 6 6 6 6 5
3 3 3 3 3 4 4 4 4 4 4 5 5 5 5 5 5 5 6 6 6 6 6 6 6 6 6 6 7 7 7 6 6 6 6 6 6 6 6 6 6 5 5
2 2 2 3 3 3 3 3 4 4 4 4 4 4 4 5 5 5 5 5 5 5 5 5 6 6 6 6 6 6 6 6 6 6 6 6 6 5 5 5 5 5 5
2 2 2 2 2 2 3 3 3 3 3 3 3 3 4 4 4 4 4 4 4 5 5 5 5 5 5 5 5 5 5 5 5 5 5 5 5 5 5 5 5 5 5
1 2 2 2 2 2 2 2 2 2 2 2 2 3 3 3 3 4 4 4 4 4 4 4 4 4 5 5 5 5 5 5 5 5 5 5 5 5 5 5 5 4 4
1 1 1 1 1 1 1 1 2 1 2 2 2 2 2 3 3 3 3 3 3 3 3 3 3 4 4 4 4 4 4 4 4 4 4 4 4 4 4 4 4 4 4
1 1 1 1 1 1 1 1 1 1 1 1 2 2 2 2 2 2 2 2 3 3 3 3 3 3 3 3 4 4 4 4 4 4 4 4 4 4 4 4 4 3 3
0 0 0 1 1 1 1 1 1 1 1 1 1 1 1 1 1 2 2 2 2 2 2 2 2 3 3 3 3 3 3 3 3 3 3 4 4 4 3 3 3 3 3
-0 -0 -0 0 0 0 0 0 1 1 0 0 0 1 1 1 1 1 1 1 1 1 1 2 2 2 2 2 2 2 3 3 3 3 3 3 3 3 3 3 3 3 3
-1 -1 -1 -1 -0 -0 -0 -0 -0 -0 -0 -0 -0 -0 -0 -0 0 0 0 0 1 1 1 1 1 1 2 2 2 2 2 2 2 2 2 2 3 3 2 2 2 2 2
-1 -1 -1 -1 -1 -1 -1 -1 -1 -1 -1 -1 -1 -1 -1 -1 -1 -1 -0 -0 -0 0 0 1 1 1 1 1 1 1 1 1 2 2 2 2 2 2 2 2 2 2 2
-2 -2 -2 -1 -1 -1 -1 -1 -1 -1 -1 -2 -2 -2 -2 -2 -1 -1 -1 -1 -1 -1 -0 -0 0 0 0 1 0 0 1 1 1 1 1 1 1 1 1 1 1 1 1
-2 -2 -2 -2 -2 -2 -2 -2 -2 -2 -2 -2 -2 -2 -2 -2 -2 -2 -1 -1 -1 -1 -1 -1 -1 -0 -0 -0 0 0 0 0 0 0 0 1 1 1 1 1 1 1 1
-3 -2 -2 -2 -2 -2 -2 -2 -3 -3 -3 -3 -3 -2 -2 -2 -2 -2 -2 -2 -2 -2 -2 -2 -1 -1 -1 -1 -0 -0 -0 -0 -0 -0 -0 -0 0 0 0 0 0 0 -0
-3 -3 -3 -3 -3 -3 -3 -3 -3 -3 -3 -3 -3 -3 -3 -3 -2 -2 -2 -2 -2 -2 -2 -2 -2 -2 -1 -1 -1 -1 -1 -1 -1 -1 -1 -1 -1 -0 -0 -0 -0 -0 -0
-3 -3 -3 -3 -3 -3 -3 -3 -3 -3 -3 -3 -3 -3 -3 -3 -3 -3 -3 -3 -3 -3 -3 -3 -2 -2 -2 -2 -2 -2 -2 -1 -1 -1 -1 -1 -1 -1 -1 -1 -1 -1 -1
-4 -4 -4 -3 -3 -3 -3 -3 -3 -4 -4 -4 -4 -3 -3 -3 -3 -3 -3 -3 -3 -3 -3 -3 -3 -3 -3 -3 -2 -2 -2 -2 -2 -2 -2 -2 -2 -2 -2 -2 -1 -1 -1
-4 -4 -4 -4 -4 -4 -4 -4 -4 -4 -4 -4 -4 -4 -4 -4 -4 -3 -3 -3 -3 -3 -3 -3 -3 -3 -3 -3 -3 -3 -2 -2 -2 -2 -2 -2 -2 -2 -2 -2 -2 -2 -2
Wind_Speed
5 3 2 2 2 2 3 4 4 4 3 3 3 3 4 4 4 6 8 9 10 11 9 7 8 8 7 7 7 5 4 2 2 1 1 2 2 2 3 3 3 4 5
3 2 1 0 0 2 3 4 4 4 4 4 4 4 4 4 4 4 6 9 10 10 10 8 7 8 6 7 7 5 4 3 3 3 1 1 2 3 3 2 3 3 4
2 1 1 0 0 1 2 3 4 4 4 4 3 2 1 1 3 3 4 6 8 10 10 10 8 8 7 8 8 8 7 4 4 3 3 3 4 2 3 3 3 3 3
0 0 1 2 2 3 2 2 3 3 3 3 3 5 4 4 5 4 4 5 7 8 8 9 9 8 7 7 8 7 5 6 5 3 2 2 3 2 2 3 2 4 4
1 2 2 2 3 2 2 2 2 3 3 3 4 5 4 4 3 3 4 5 6 7 8 8 8 8 7 7 7 7 6 6 6 4 3 2 1 1 2 3 3 3 4
2 2 3 2 3 3 2 2 2 3 4 4 4 5 5 4 4 4 5 5 5 6 7 8 7 7 6 7 7 7 8 7 7 5 4 4 3 3 3 3 4 4 4
2 3 4 4 3 3 4 3 3 4 4 4 4 5 6 6 6 6 6 5 5 5 7 7 7 7 7 7 7 7 7 8 8 7 6 5 4 3 3 3 3 3 3
3 3 4 3 4 4 4 3 4 5 4 4 4 4 4 4 4 5 5 5 5 6 6 7 7 7 7 7 7 6 7 7 8 8 7 5 5 4 4 4 3 3 3
3 4 4 4 4 4 4 4 4 4 4 4 4 4 4 4 4 4 4 4 3 4 6 6 6 7 7 7 7 6 6 6 7 8 7 6 5 5 4 4 4 4 4
3 4 4 4 4 4 4 3 3 4 4 3 3 3 3 4 4 4 4 4 4 4 4 5 5 6 6 6 6 5 6 7 7 6 8 7 5 5 4 4 4 4 5
4 4 4 4 4 4 3 3 3 3 3 3 3 3 3 4 3 3 4 4 4 4 4 5 6 6 6 6 6 6 6 8 7 7 8 8 6 5 5 4 4 4 4
4 4 4 4 4 4 4 3 3 3 3 3 3 3 3 3 2 3 3 3 3 3 4 4 5 5 6 6 7 7 7 8 9 8 8 8 6 7 6 5 5 5 5
5 4 4 4 4 4 4 4 3 3 3 3 3 3 3 2 2 2 2 3 3 3 3 3 4 5 6 6 7 8 8 8 9 9 9 8 8 8 6 6 6 5 5
4 5 5 5 4 4 3 3 3 3 2 2 2 2 2 2 2 2 2 2 2 3 3 3 4 5 5 6 6 7 8 8 8 8 8 9 9 9 8 7 7 6 5
6 6 5 5 4 4 4 3 3 2 2 1 1 2 2 2 1 2 1 1 1 2 2 2 3 4 4 5 5 6 7 8 8 7 7 8 10 10 9 7 7 7 5
7 7 6 5 4 4 4 3 3 2 2 1 2 2 2 1 1 2 1 1 1 1 2 2 3 3 4 6 8 6 6 6 7 7 6 7 8 10 11 11 10 9 7
7 6 5 5 5 4 4 3 3 2 1 1 2 2 2 2 2 2 2 1 2 2 2 2 3 4 4 6 8 8 5 5 6 7 6 5 6 8 7 8 9 9 10
6 6 6 6 5 4 4 3 2 2 1 1 2 2 2 2 2 2 2 2 2 2 2 3 3 4 5 6 7 7 4 4 5 6 6 6 6 7 7 6 5 5 5
6 5 5 5 4 4 3 3 3 3 2 2 2 3 2 2 2 2 2 2 2 2 2 3 3 4 5 6 7 6 3 3 4 5 5 6 6 8 8 6 5 3 3
5 5 5 4 4 4 3 3 3 3 3 3 3 3 3 2 3 3 3 2 2 2 3 3 3 4 4 6 6 6 3 3 3 3 4 6 7 8 8 6 6 5 3
5 5 4 4 4 4 3 2 3 3 3 3 3 3 3 3 3 3 3 2 2 2 2 3 4 4 5 6 6 5 3 3 3 3 3 4 7 8 8 6 5 5 4
5 5 4 4 5 4 3 3 3 4 3 3 3 4 3 3 3 2 3 2 2 2 2 3 4 3 3 5 5 5 4 3 2 3 3 4 6 6 6 5 4 5 3
5 4 4 4 5 4 3 3 4 3 3 3 3 3 4 3 3 2 2 2 2 2 2 2 3 3 2 3 5 5 4 3 2 2 3 3 3 3 3 4 4 3 3
4 4 4 5 5 5 5 4 4 3 3 3 3 3 3 3 3 3 2 2 2 2 3 3 3 3 2 2 2 2 2 2 2 1 1 1 2 1 2 3 2 1 2
4 3 4 5 6 6 6 5 4 3 3 3 3 3 3 3 3 3 3 3 3 4 3 3 3 3 3 4 4 2 2 1 1 1 1 1 1 2 1 1 1 1 1
4 4 4 5 5 5 6 5 5 3 2 3 3 3 2 2 2 2 3 4 4 5 5 5 4 3 4 5 4 3 3 2 2 2 2 1 1 1 1 1 1 1 1
Wind_Direction
258 250 237 231 203 195 196 197 196 204 194 190 199 200 212 227 220 208 208 205 197 192 187 187 186 186 190 191 187 181 181 182 151 107 347 319 292 248 225 211 202 211 212
282 294 286 273 215 214 209 210 206 201 200 205 206 209 209 216 224 220 211 209 201 195 192 190 193 193 194 192 191 179 178 191 171 149 131 270 299 284 250 228 216 214 208
230 259 349 351 331 260 233 230 226 216 211 212 205 212 219 233 226 231 225 218 207 200 195 194 192 195 195 199 198 191 185 193 203 186 167 175 221 266 273 246 230 219 223
306 299 330 319 289 260 260 261 243 230 222 207 199 198 212 226 234 226 227 227 210 203 198 195 193 195 198 204 205 198 194 183 198 217 217 194 169 181 256 283 259 243 235
276 297 288 280 288 279 266 268 269 254 237 220 211 207 226 234 241 233 228 225 218 208 201 197 192 197 201 203 204 203 198 195 197 199 198 200 214 197 195 250 272 275 252
320 318 315 316 323 329 312 289 282 269 252 235 224 213 221 232 233 236 230 226 222 217 208 200 195 198 203 205 205 207 205 204 202 202 198 192 190 202 200 229 257 267 270
327 323 324 322 320 326 321 307 288 280 267 247 237 229 226 222 222 227 225 223 224 225 213 205 203 206 208 206 205 208 212 208 204 206 211 210 211 194 194 210 245 268 277
340 332 320 311 308 303 300 297 290 285 279 261 254 249 237 230 234 231 225 225 225 224 216 211 207 208 208 208 206 211 216 213 211 212 211 213 215 205 200 200 203 263 277
328 322 318 310 301 295 282 272 274 282 278 265 261 253 242 233 238 237 225 226 233 230 215 215 213 211 208 209 208 213 215 214 214 212 212 216 218 213 214 206 200 206 246
317 314 313 306 300 290 285 274 259 269 273 257 248 256 254 248 246 231 225 229 229 222 219 219 216 216 215 215 214 215 216 215 218 212 210 215 217 213 212 211 215 215 222
301 301 304 305 303 303 302 289 281 280 275 264 257 262 265 264 250 233 233 230 227 221 222 226 220 218 219 217 212 214 213 215 217 214 213 216 210 209 213 210 213 219 217
297 296 302 309 312 312 317 308 294 278 269 261 257 257 262 264 251 249 243 230 226 222 225 226 222 222 222 219 213 215 215 214 215 216 213 215 211 212 212 210 216 222 220
313 316 322 321 317 315 310 303 292 276 272 263 257 264 267 261 261 257 248 228 223 227 231 234 232 232 230 227 222 216 217 217 218 214 213 214 209 216 216 214 219 224 225
314 322 323 320 318 318 311 306 303 292 284 274 263 268 271 262 263 263 254 237 225 228 236 238 242 242 240 235 226 220 218 218 219 217 215 214 213 215 213 217 218 218 218
321 321 320 319 320 325 326 324 323 321 309 303 289 278 278 280 285 290 282 263 245 254 248 250 254 250 244 238 230 221 218 215 216 219 221 220 220 222 219 220 216 211 217
318 322 324 324 323 325 326 327 326 326 328 321 306 307 307 300 294 293 286 275 275 272 272 268 265 259 255 254 251 237 217 215 214 219 223 227 224 225 228 230 227 219 216
315 319 321 320 315 313 315 313 312 322 318 301 299 312 310 309 307 303 300 288 282 281 287 288 283 272 266 264 263 259 239 221 218 216 217 226 229 223 218 225 227 231 232
316 317 317 319 318 321 324 324 331 339 324 308 305 308 305 303 307 297 294 293 274 274 287 286 285 284 281 278 273 268 252 232 222 219 214 214 220 218 210 207 219 229 233
311 310 311 314 323 328 331 352 2 356 349 335 323 316 305 297 295 290 292 285 282 292 295 293 291 288 290 287 283 280 247 229 227 224 218 214 213 221 211 199 202 218 229
324 325 329 336 341 333 348 16 358 354 336 322 314 311 302 291 287 288 290 287 281 289 297 301 298 291 291 293 290 291 245 225 228 228 223 226 220 218 216 199 192 205 216
327 334 340 342 337 338 2 8 350 331 317 320 320 321 319 303 292 296 293 288 293 300 298 298 300 297 295 298 295 291 262 225 222 228 230 225 224 222 222 214 202 203 192
336 342 344 337 337 344 359 353 327 314 320 323 325 324 321 313 310 307 305 301 294 296 297 298 304 303 298 301 293 293 281 261 227 226 227 227 233 222 214 210 190 174 166
333 339 341 335 337 342 346 329 312 312 316 322 320 316 315 314 309 302 303 302 287 274 281 282 288 305 313 308 304 302 291 280 266 238 231 231 226 202 176 167 162 155 153
329 334 339 337 333 335 333 312 311 319 324 322 314 308 310 314 315 304 291 274 265 264 272 271 273 283 299 304 298 293 284 286 279 240 193 158 124 112 136 149 148 157 173
323 329 332 327 323 328 330 329 324 324 324 317 311 314 314 306 310 304 291 280 263 257 258 257 257 257 267 282 294 283 269 250 222 154 119 110 115 122 119 112 119 128 138
320 326 326 323 320 323 324 326 327 322 318 318 315 312 309 303 298 301 309 306 290 292 285 279 274 272 274 287 292 287 282 270 189 138 143 153 151 164 158 157 149 148 165
Height
1472 1473 1473 1474 1475 1476 1477 1478 1479 1480 1481 1482 1482 1483 1485 1486 1487 1490 1492 1494 1495 1497 1499 1500 1502 1504 1505 1507 1509 1510 1511 1512 1514 1515 1515 1516 1517 1517 1517 1518 1518 1519 1519
1469 1469 1470 1471 1471 1472 1473 1474 1475 1475 1476 1478 1479 1479 1481 1482 1484 1485 1487 1489 1491 1493 1494 1496 1498 1500 1501 1503 1504 1506 1507 1508 1510 1511 1512 1512 1513 1512 1513 1513 1514 1514 1515
1466 1466 1467 1467 1468 1468 1469 1470 1471 1471 1472 1474 1475 1476 1477 1477 1479 1481 1482 1484 1486 1488 1489 1491 1493 1495 1497 1498 1499 1501 1503 1504 1506 1508 1509 1509 1508 1508 1509 1509 1509 1510 1511
1463 1464 1464 1464 1465 1465 1465 1466 1467 1467 1468 1469 1469 1470 1471 1472 1473 1475 1477 1479 1480 1482 1484 1486 1488 1490 1492 1493 1495 1496 1498 1499 1501 1503 1504 1505 1505 1506 1504 1505 1505 1505 1506
1461 1461 1461 1462 1462 1462 1462 1462 1463 1463 1464 1464 1465 1466 1466 1468 1469 1471 1472 1473 1475 1477 1479 1481 1483 1485 1487 1488 1490 1491 1493 1494 1496 1497 1499 1500 1501 1502 1502 1500 1500 1500 1501
1459 1459 1459 1459 1458 1458 1459 1458 1458 1458 1459 1460 1460 1461 1462 1463 1464 1465 1467 1468 1469 1471 1473 1475 1477 1479 1481 1483 1485 1486 1488 1489 1491 1493 1494 1495 1496 1497 1497 1497 1496 1495 1496
1456 1456 1455 1455 1454 1454 1454 1454 1454 1454 1454 1455 1455 1456 1457 1458 1459 1460 1462 1463 1464 1465 1466 1469 1471 1474 1476 1478 1480 1481 1482 1484 1486 1487 1489 1490 1492 1493 1493 1493 1492 1492 1491
1455 1454 1453 1452 1451 1451 1451 1451 1450 1450 1450 1450 1451 1452 1453 1454 1455 1456 1457 1458 1459 1460 1462 1464 1466 1468 1470 1472 1474 1475 1477 1479 1480 1481 1483 1484 1486 1487 1488 1489 1489 1488 1487
1453 1452 1451 1449 1449 1448 1447 1446 1446 1446 1445 1446 1446 1447 1448 1449 1450 1451 1452 1453 1454 1455 1457 1459 1461 1463 1464 1466 1468 1469 1471 1473 1474 1476 1477 1478 1480 1482 1483 1484 1485 1486 1483
1451 1450 1448 1447 1446 1445 1444 1443 1442 1442 1441 1442 1442 1443 1443 1444 1445 1446 1447 1448 1449 1450 1452 1454 1455 1457 1458 1460 1462 1463 1465 1466 1468 1470 1471 1472 1474 1476 1478 1479 1479 1480 1480
1449 1448 1446 1444 1443 1442 1440 1439 1438 1438 1437 1437 1438 1438 1438 1439 1440 1441 1442 1443 1444 1445 1447 1449 1450 1451 1452 1454 1456 1457 1458 1460 1462 1463 1465 1466 1469 1470 1472 1473 1474 1474 1475
1447 1446 1444 1441 1439 1438 1436 1435 1434 1434 1434 1434 1434 1434 1435 1435 1436 1436 1437 1438 1439 1441 1442 1443 1444 1445 1447 1448 1450 1451 1453 1454 1456 1457 1459 1460 1463 1464 1466 1467 1467 1468 1469
1445 1443 1441 1438 1436 1434 1433 1432 1431 1430 1431 1431 1430 1431 1431 1431 1432 1432 1433 1434 1435 1436 1437 1438 1438 1439 1441 1442 1444 1445 1447 1449 1451 1452 1453 1454 1457 1458 1459 1460 1461 1462 1463
1443 1441 1438 1436 1434 1432 1431 1429 1428 1428 1427 1427 1427 1427 1427 1428 1428 1429 1429 1430 1431 1432 1433 1433 1434 1435 1436 1437 1439 1440 1442 1443 1445 1446 1447 1449 1451 1452 1453 1454 1455 1456 1457
1440 1438 1436 1434 1432 1430 1429 1427 1426 1425 1425 1424 1424 1423 1424 1425 1425 1426 1427 1427 1428 1428 1429 1429 1430 1431 1432 1433 1434 1435 1436 1438 1439 1440 1441 1443 1445 1446 1448 1449 1449 1450 1451
1439 1436 1434 1432 1430 1428 1427 1425 1424 1423 1422 1421 1421 1421 1421 1422 1422 1423 1424 1424 1424 1425 1426 1426 1426 1427 1428 1429 1430 1431 1431 1432 1433 1434 1435 1437 1439 1440 1442 1443 1444 1445 1445
1437 1435 1433 1431 1429 1427 1425 1423 1422 1421 1420 1419 1419 1419 1419 1419 1419 1420 1420 1420 1421 1422 1422 1422 1423 1423 1424 1424 1425 1426 1426 1426 1427 1428 1430 1431 1433 1434 1435 1436 1438 1438 1439
1435 1433 1431 1429 1427 1425 1423 1421 1420 1419 1418 1417 1417 1416 1416 1416 1417 1417 1417 1417 1418 1418 1418 1419 1419 1419 1419 1420 1420 1421 1421 1421 1422 1423 1424 1425 1427 1428 1429 1430 1431 1432 1433
1434 1432 1429 1427 1425 1423 1421 1419 1418 1417 1416 1415 1414 1414 1414 1414 1414 1414 1414 1414 1415 1415 1415 1415 1415 1415 1415 1415 1415 1416 1416 1416 1417 1418 1419 1420 1421 1423 1424 1425 1425 1426 1427
1432 1430 1427 1425 1423 1422 1420 1418 1416 1415 1414 1413 1413 1412 1412 1411 1411 1411 1411 1412 1412 1412 1412 1412 1412 1411 1411 1411 1411 1411 1411 1411 1412 1413 1414 1415 1416 1418 1419 1420 1420 1421 1422
1431 1428 1426 1424 1422 1420 1418 1416 1415 1414 1413 1412 1411 1410 1410 1409 1409 1409 1409 1409 1409 1409 1408 1408 1407 1407 1407 1406 1407 1407 1407 1407 1408 1408 1409 1410 1412 1413 1414 1415 1416 1416 1418
1429 1427 1425 1423 1421 1419 1417 1415 1413 1413 1411 1410 1409 1408 1408 1407 1407 1406 1406 1406 1406 1405 1405 1404 1404 1403 1403 1403 1403 1403 1404 1404 1404 1405 1406 1407 1408 1408 1409 1411 1411 1413 1414
1428 1426 1424 1421 1420 1418 1416 1414 1413 1412 1410 1409 1408 1407 1406 1405 1405 1404 1403 1403 1403 1403 1402 1401 1400 1400 1400 1400 1400 1400 1401 1401 1401 1402 1402 1403 1404 1404 1405 1407 1408 1409 1410
1427 1425 1423 1420 1419 1417 1415 1413 1412 1410 1409 1407 1406 1405 1404 1403 1403 1402 1402 1401 1401 1400 1399 1399 1398 1397 1397 1397 1397 1397 1398 1398 1398 1399 1399 1400 1401 1401 1402 1404 1405 1405 1406
1425 1423 1421 1419 1418 1416 1414 1412 1410 1409 1407 1406 1404 1403 1402 1401 1401 1400 1399 1399 1398 1398 1398 1397 1396 1395 1395 1395 1396 1396 1396 1396 1396 1396 1397 1397 1398 1398 1399 1400 1402 1402 1403
1424 1422 1420 1418 1416 1414 1413 1411 1409 1407 1405 1404 1403 1401 1400 1399 1399 1398 1397 1397 1397 1396 1396 1395 1394 1393 1394 1393 1393 1394 1394 1394 1394 1395 1394 1395 1396 1396 1396 1398 1399 1400 1401